• In Latvia
  • List of Countries
  • For 7 days
  • Water Temperature
  • Satellite Maps
  • Weather Map
  • Weather Widgets
  • user-avatar
    Login

    Hourly Weather Exeter

    Today, 27 May, Sunday

    Time Temperature Precipitation Wind Pressure Humidity
    00:00 +16°C° 0.5 mm 7 mps 752 mmHg 94%
    01:00 +15°C° 0.8 mm 7 mps 752 mmHg 95%
    02:00 +15°C° 0.8 mm 6 mps 752 mmHg 95%
    03:00 +15°C° 0.8 mm 6 mps 752 mmHg 96%
    04:00 +15°C° 0.3 mm 6 mps 752 mmHg 96%
    05:00 +15°C° 0.3 mm 5 mps 752 mmHg 96%
    06:00 +15°C° 0.3 mm 5 mps 752 mmHg 96%
    07:00 +16°C° 0.3 mm 5 mps 752 mmHg 94%
    08:00 +17°C° 0.3 mm 5 mps 752 mmHg 93%
    09:00 +18°C° 0.3 mm 4 mps 753 mmHg 91%
    10:00 +19°C° 0 mm 5 mps 753 mmHg 87%
    11:00 +20°C° 0 mm 5 mps 753 mmHg 83%
    12:00 +20°C° 0 mm 5 mps 753 mmHg 79%
    13:00 +20°C° 0 mm 4 mps 753 mmHg 79%
    14:00 +20°C° 0 mm 4 mps 753 mmHg 80%
    15:00 +20°C° 0 mm 4 mps 753 mmHg 80%
    16:00 +20°C° 0 mm 3 mps 753 mmHg 81%
    17:00 +19°C° 0 mm 3 mps 753 mmHg 83%
    18:00 +19°C° 0 mm 2 mps 753 mmHg 85%
    19:00 +18°C° 0 mm 2 mps 754 mmHg 88%
    20:00 +16°C° 0 mm 1 mps 754 mmHg 91%
    21:00 +15°C° 0 mm 1 mps 754 mmHg 94%
    22:00 +14°C° 0 mm 1 mps 754 mmHg 94%
    23:00 +14°C° 0 mm 1 mps 754 mmHg 94%

    Tomorrow, 28 May, Monday

    Time Temperature Precipitation Wind Pressure Humidity
    00:00 +14°C° 0 mm 1 mps 754 mmHg 94%
    01:00 +13°C° 0 mm 1 mps 754 mmHg 94%
    02:00 +13°C° 0 mm 1 mps 755 mmHg 94%
    03:00 +13°C° 0 mm 1 mps 755 mmHg 94%
    04:00 +14°C° 0 mm 2 mps 755 mmHg 94%
    05:00 +15°C° 0 mm 2 mps 755 mmHg 94%
    06:00 +15°C° 0 mm 2 mps 755 mmHg 94%
    07:00 +17°C° 0 mm 2 mps 755 mmHg 90%
    08:00 +18°C° 0 mm 2 mps 756 mmHg 87%
    09:00 +19°C° 0 mm 2 mps 756 mmHg 83%
    10:00 +20°C° 0 mm 2 mps 756 mmHg 81%
    11:00 +21°C° 0 mm 2 mps 756 mmHg 79%
    12:00 +23°C° 0 mm 2 mps 756 mmHg 77%
    13:00 +23°C° 0 mm 2 mps 756 mmHg 77%
    14:00 +23°C° 0 mm 2 mps 756 mmHg 77%
    15:00 +24°C° 0 mm 2 mps 755 mmHg 78%
    16:00 +22°C° 0.3 mm 3 mps 755 mmHg 81%
    17:00 +22°C° 0.3 mm 3 mps 755 mmHg 84%
    18:00 +21°C° 0.3 mm 4 mps 755 mmHg 87%
    19:00 +20°C° 0 mm 4 mps 755 mmHg 90%
    20:00 +19°C° 0 mm 4 mps 756 mmHg 93%
    21:00 +17°C° 0 mm 4 mps 756 mmHg 96%
    22:00 +17°C° 0 mm 4 mps 756 mmHg 96%
    23:00 +17°C° 0 mm 4 mps 755 mmHg 97%

    Day after tomorrow, 29 May, Tuesday

    Time Temperature Precipitation Wind Pressure Humidity
    00:00 +17°C° 0 mm 4 mps 755 mmHg 97%
    01:00 +17°C° 0 mm 4 mps 755 mmHg 97%
    02:00 +17°C° 0 mm 4 mps 755 mmHg 97%
    03:00 +16°C° 0 mm 5 mps 755 mmHg 97%
    04:00 +16°C° 0 mm 5 mps 755 mmHg 96%
    05:00 +15°C° 0 mm 5 mps 755 mmHg 95%
    06:00 +15°C° 0 mm 5 mps 755 mmHg 95%
    07:00 +16°C° 0 mm 5 mps 755 mmHg 91%
    08:00 +17°C° 0 mm 5 mps 755 mmHg 88%
    09:00 +19°C° 0 mm 5 mps 755 mmHg 85%
    10:00 +20°C° 0 mm 5 mps 754 mmHg 83%
    11:00 +21°C° 0 mm 5 mps 754 mmHg 81%
    12:00 +22°C° 0 mm 5 mps 754 mmHg 79%
    13:00 +22°C° 0.4 mm 5 mps 754 mmHg 80%
    14:00 +22°C° 0.4 mm 5 mps 754 mmHg 80%
    15:00 +23°C° 0.4 mm 5 mps 753 mmHg 80%
    16:00 +22°C° 0.7 mm 4 mps 753 mmHg 83%
    17:00 +22°C° 0.7 mm 4 mps 753 mmHg 85%
    18:00 +21°C° 0.7 mm 4 mps 752 mmHg 87%
    19:00 +20°C° 0.2 mm 4 mps 753 mmHg 89%
    20:00 +19°C° 0.2 mm 4 mps 753 mmHg 91%
    21:00 +18°C° 0.2 mm 4 mps 753 mmHg 93%
    22:00 +17°C° 0.1 mm 4 mps 753 mmHg 94%
    23:00 +15°C° 0.1 mm 4 mps 752 mmHg 95%

    30 May, Wednesday

    Time Temperature Precipitation Wind Pressure Humidity
    00:00 +14°C° 0.1 mm 5 mps 752 mmHg 96%
    01:00 +14°C° 0 mm 5 mps 752 mmHg 96%
    02:00 +13°C° 0 mm 4 mps 752 mmHg 96%
    03:00 +12°C° 0 mm 4 mps 751 mmHg 96%
    04:00 +12°C° 0 mm 5 mps 751 mmHg 96%
    05:00 +12°C° 0 mm 5 mps 751 mmHg 95%
    06:00 +12°C° 0 mm 5 mps 751 mmHg 94%
    07:00 +13°C° 0.1 mm 5 mps 751 mmHg 91%
    08:00 +14°C° 0.1 mm 5 mps 751 mmHg 89%
    09:00 +15°C° 0.1 mm 5 mps 751 mmHg 86%
    10:00 +17°C° 0.1 mm 4 mps 751 mmHg 85%
    11:00 +17°C° 0.1 mm 4 mps 751 mmHg 83%
    12:00 +18°C° 0.1 mm 4 mps 751 mmHg 81%
    13:00 +18°C° 0.1 mm 4 mps 751 mmHg 81%
    14:00 +19°C° 0.1 mm 4 mps 751 mmHg 81%
    15:00 +19°C° 0.1 mm 3 mps 751 mmHg 81%
    16:00 +19°C° 0 mm 3 mps 751 mmHg 82%
    17:00 +18°C° 0 mm 3 mps 751 mmHg 83%
    18:00 +18°C° 0 mm 3 mps 751 mmHg 85%
    19:00 +17°C° 0 mm 3 mps 751 mmHg 87%
    20:00 +17°C° 0 mm 2 mps 751 mmHg 90%
    21:00 +16°C° 0 mm 2 mps 751 mmHg 92%
    22:00 +16°C° 0 mm 2 mps 751 mmHg 93%
    23:00 +15°C° 0 mm 2 mps 751 mmHg 93%

    31 May, Thursday

    Time Temperature Precipitation Wind Pressure Humidity
    00:00 +15°C° 0 mm 2 mps 751 mmHg 94%
    01:00 +15°C° 0 mm 2 mps 751 mmHg 94%
    02:00 +14°C° 0 mm 3 mps 751 mmHg 95%
    03:00 +14°C° 0 mm 3 mps 751 mmHg 95%
    04:00 +14°C° 0 mm 3 mps 751 mmHg 95%
    05:00 +16°C° 0 mm 3 mps 751 mmHg 95%
    06:00 +16°C° 0 mm 3 mps 751 mmHg 95%
    07:00 +17°C° 0 mm 3 mps 752 mmHg 94%
    08:00 +17°C° 0 mm 3 mps 752 mmHg 92%
    09:00 +18°C° 0 mm 3 mps 752 mmHg 91%
    10:00 +18°C° 0.1 mm 3 mps 752 mmHg 90%
    11:00 +19°C° 0.1 mm 3 mps 753 mmHg 89%
    12:00 +19°C° 0.1 mm 3 mps 753 mmHg 88%
    13:00 +19°C° 0.2 mm 3 mps 753 mmHg 88%
    14:00 +20°C° 0.2 mm 3 mps 753 mmHg 88%
    15:00 +20°C° 0.2 mm 3 mps 753 mmHg 88%
    16:00 +20°C° 0.3 mm 3 mps 753 mmHg 88%
    17:00 +20°C° 0.3 mm 3 mps 753 mmHg 89%
    18:00 +20°C° 0.3 mm 3 mps 753 mmHg 90%
    19:00 +19°C° 0.1 mm 2 mps 753 mmHg 92%
    20:00 +18°C° 0.1 mm 2 mps 753 mmHg 94%
    21:00 +17°C° 0.1 mm 2 mps 754 mmHg 96%
    22:00 +17°C° 0 mm 2 mps 754 mmHg 96%
    23:00 +16°C° 0 mm 2 mps 754 mmHg 97%

    1 June, Friday

    Time Temperature Precipitation Wind Pressure Humidity
    00:00 +16°C° 0 mm 2 mps 754 mmHg 97%
    01:00 +16°C° 0 mm 2 mps 754 mmHg 97%
    02:00 +16°C° 0 mm 2 mps 754 mmHg 97%
    03:00 +16°C° 0 mm 2 mps 753 mmHg 97%
    04:00 +16°C° 0 mm 2 mps 754 mmHg 97%
    05:00 +16°C° 0 mm 2 mps 754 mmHg 96%
    06:00 +16°C° 0 mm 3 mps 754 mmHg 96%
    07:00 +17°C° 0 mm 3 mps 754 mmHg 94%
    08:00 +18°C° 0 mm 3 mps 754 mmHg 92%
    09:00 +19°C° 0 mm 3 mps 755 mmHg 90%
    10:00 +19°C° 0.2 mm 3 mps 755 mmHg 90%
    11:00 +19°C° 0.2 mm 3 mps 755 mmHg 89%
    12:00 +20°C° 0.2 mm 3 mps 755 mmHg 89%
    13:00 +20°C° 0.4 mm 3 mps 755 mmHg 87%
    14:00 +20°C° 0.4 mm 3 mps 755 mmHg 86%
    15:00 +21°C° 0.4 mm 3 mps 755 mmHg 85%
    16:00 +20°C° 0.2 mm 2 mps 755 mmHg 86%
    17:00 +20°C° 0.2 mm 2 mps 755 mmHg 86%
    18:00 +19°C° 0.2 mm 2 mps 755 mmHg 87%
    19:00 +19°C° 0 mm 1 mps 755 mmHg 90%
    20:00 +18°C° 0 mm 1 mps 755 mmHg 93%
    21:00 +15°C° 0 mm 1 mps 756 mmHg 95%
    22:00 +15°C° 0 mm 1 mps 756 mmHg 96%
    23:00 +15°C° 0 mm 1 mps 756 mmHg 96%
    Show more